OBJECT A, 66175

Orbit data source: Space-Track

You're viewing an Uncataloged Satellite

Recently launched and/or uncataloged satellites may have evolving metadata. Metadata may include but not limited to: Owner, Maufacturer, Bus, Motor, and Mission.

OBJECT A, 66175 is a satellite owned by Yaogan Zongti (CN) in SSO that was launched on Sun, 26 Oct 2025 UTC via a CHANG ZHENG 3B launch vehicle from the Xichang Space Center, China (XSC). Unknown objects in Earth's orbit typically refer to objects detected orbiting the Earth but have not yet been identified or cataloged. These objects could be anything from previously untracked satellites, spent rocket stages, debris from satellite collisions, or even natural meteoroids temporarily captured by Earth's gravity.

Loading next visibility...
Identifier
66175, 2025-242A
Orbit
SSO
Country
Flag of CNCN / PRC
Related business
Manufacturer
CAST
Mission
Operational Defense Imaging
Bus & Motor
GF-14, Unknown motor
Mass
~6,500 kg wet, ~5,500 kg dry
Launch date (UTC)
2025-10-26 (8 months ago)
Launch vehicle
CHANG ZHENG 3B
Launch site
Xichang Space Center, China (XSC)
Object type
Unknown
Shape & HBR
Box + 2 Pan, 4.3 m
Radar Cross Section
26.513 m², Large (>1 m²)

Expand to show TLE details & history
Last TLE update: 19 hours ago

TLE from 19 hours ago
0 OBJECT A
1 66175U 25242A   26171.20322071  .00004682  00000-0  18855-3 0  9994
2 66175  97.4118 246.7369 0001262 140.4507 219.6823 15.25350880 36159
Epoch: 2026-06-20T04:52Z
TLE epoch observation values (Epoch: 2026-06-20T04:52:38.269Z)
Latitude
-0.00004°
Longitude
-94.84376°
Altitude
493.497 km
Speed
7.618 km/s
True Right ascension
16h 26m 56s
True Declination
0° 00' 00"
Sunlit
Object was in full shadow at epoch
Visualization orbit readout
Latitude
Unknown
Longitude
Unknown
Altitude
Unknown
Speed
Unknown
Apparent Right ascension
Unknown
Apparent Declination
Unknown
Sunlit
N/A
Visualization observer readout
Local Sidereal Time
10:18:54
Azimuth
Unknown
Elevation
Unknown
Doppler factor
Unknown
Orbital elements
Apogee altitude
487.557 km
Perigee altitude
485.825 km
Semi-major axis
6,864.828 km
Eccentricity
0.00013
Inclination
97.4118°
RAAN
246.7369°
Arg. of periapsis
140.4507°
True anomaly
219.67307°
Mean anomaly
219.6823°
Eccentric anomaly
219.67768°
Mean motion
3.81591 °/min
Orbital period
94.34 mins
BSTAR
0.00018855
Loading maneuver chart data...
Computing Atmospheric mass density...
Loading historical data...
Loading historical data...
Loading historical data...
Loading historical data...
Loading historical data...
Loading historical data...
Loading historical data...
Other satellites on launch #242 in the year 2025 (2025-10-26 UTC)

Documentation

Showing up to 5 results
|